Regional Weather Roundup
Issued by NWS

Home | Current Version | Previous Version | Text Only | Print | Product List | Glossary Off
Versions: 1 2 3 4 5 6 7 8 9 10 11 12 13 14 15 16 17 18 19 20 21 22 23 24 25 26 27 28 29 30 31 32 33 34 35 36 37 38 39 40 41 42 43 44 45 46 47 48 49 50

143
ASUS45 KCYS 260310
RWRWY

WYOMING REGIONAL WEATHER ROUNDUP
NATIONAL WEATHER SERVICE CHEYENNE WY
900 PM MDT THU MAY 25 2017

NOTE:  "FAIR" INDICATES FEW OR NO CLOUDS BELOW 12,000 FEET
WITH NO SIGNIFICANT WEATHER AND/OR OBSTRUCTIONS TO VISIBILITY.

WYZ001-260400-
YELLOWSTONE NATIONAL PARK

CITY           SKY/WX    TMP DP  RH WIND       PRES   REMARKS
LK YELLOWSTONE   N/A     37  25  61 CALM      29.94R
W YELLOWSTONE  NOT AVBL

$$
WYZ002>013-054>058-071-098>099-260400-
NORTHERN WYOMING

CITY           SKY/WX    TMP DP  RH WIND       PRES   REMARKS
JACKSON        CLOUDY    48  27  43 NE8       29.83R
CODY           CLOUDY    50  29  44 NE3       29.88R
GREYBULL       CLOUDY    56  30  37 NW18      29.82R
WORLAND        CLOUDY    55  31  39 N8        29.83R
SHERIDAN       MOCLDY    49  41  74 CALM      29.84R
BUFFALO        FAIR      49  35  58 NW14G26   29.85R
GILLETTE       MOCLDY    45  39  79 NW6       29.83R
HULETT         FAIR      46  36  66 W5        29.83R
NEWCASTLE      FAIR      50  36  57 N14       29.82R

$$
WYZ014>020-022>026-101>103-260400-
CENTRAL WYOMING

CITY           SKY/WX    TMP DP  RH WIND       PRES   REMARKS
BIG PINEY      FAIR      45  25  45 NE10      29.86R
PINEDALE       MOCLDY    41  27  56 NW5       29.87R
DUBOIS         CLOUDY    45  27  49 S12       29.85R
LANDER         LGT RAIN  51  32  48 VRB5G18   29.85R
RIVERTON       MOCLDY    51  31  46 NE12      29.85R
CASPER         MOCLDY    48  36  63 NE16      29.85R
DOUGLAS        MOCLDY    51  37  58 N17G25    29.83R

$$
WYZ021-027>030-104>119-260400-
SOUTHERN WYOMING

CITY           SKY/WX    TMP DP  RH WIND       PRES   REMARKS
EVANSTON       FAIR      49  21  33 NW6       29.86R
KEMMERER         N/A     45  27  49 NW8       29.87
FORT BRIDGER   FAIR      49  21  33 W6        29.88S
ROCK SPRINGS   FAIR      51  18  27 NW9       29.85R
DIXON            N/A     50  42  73 E5        29.87R
RAWLINS        MOCLDY    51  26  37 VRB3      29.82R
SARATOGA       FAIR      46  32  57 S6        29.87F
LARAMIE        CLOUDY    47  37  68 NW7       29.88R
CHEYENNE       MOCLDY    49  43  80 W8        29.83R
TORRINGTON     CLOUDY    60  35  39 N13       29.74R
PINE BLUFFS    FAIR      50  50 100 CALM      29.79R

$$




USA.gov is the U.S. government's official web portal to all federal, state and local government web resources and services.